Weather History for Bozeman, MT

Change the Weather History Date:

Sunday, February 17, 2013

  Actual Average Record
Temperature  
Mean Temperature 32 °F 27 °F  
Max Temperature 38 °F 40 °F 56 °F (1965)
Min Temperature 25 °F 15 °F -30 °F (1942)
Degree Days  
Heating Degree Days 33    
Month to date heating degree days 646  
Since 1 July heating degree days 5281  
Cooling Degree Days 0    
Month to date cooling degree days 0  
Year to date cooling degree days 0  
Moisture  
Dew Point 25 °F    
Average Humidity 73    
Maximum Humidity 85    
Minimum Humidity 61    
Precipitation  
Precipitation 0.01 in 0.01 in 0.13 in (1962)
Month to date precipitation 0.01 0.23  
Year to date precipitation 0.25 0.71  
Snow  
Snow 0.00 in 0.20 in 1.80 in (1952)
Month to date snowfall T 2.8  
Since 1 July snowfall 16.9 20.2  
Snow Depth 4.00 in    
Sea Level Pressure  
Sea Level Pressure 29.87 in    
Wind  
Wind Speed 7 mph (NNW)    
Max Wind Speed 32 mph    
Max Gust Speed 39 mph    
Visibility 7 miles    
Events Fog , Snow    
T = Trace of Precipitation, MM = Missing Value Source: NWS Daily Summary

Daily Weather History Graph

Daily Weather History Graph

Search for Another Location

Airport:

Trip Planner

Search our weather history database for the weather conditions in past years. The results will help you decide how hot, cold, wet, or windy it might be!

Date:

Astronomy

Feb. 17, 2013 Rise Set
Actual Time 7:23 AM MST 5:54 PM MST
Civil Twilight 6:52 AM MST 6:25 PM MST
Nautical Twilight 6:18 AM MST 6:59 PM MST
Astronomical Twilight 5:43 AM MST 7:34 PM MST
Moon 10:53 AM MST (2/17) 1:17 AM MST (2/17)
Length of Visible Light 11h 32m
Length of Day
10h 31m
Waxing Crescent, 49% of the Moon is Illuminated
Feb 17
Waxing Crescent
Feb 17
First Quarter
Feb 25
Full
Mar 4
Last Quarter
Mar 11
New

Hourly Weather History & Observations

Time (MST) Temp. Windchill Dew Point Humidity Pressure Visibility Wind Dir Wind Speed Gust Speed Precip Events Conditions
12:56 AM 33.1 °F 26.9 °F 21.0 °F 61% 29.78 in 10.0 mi NNW 6.9 mph - N/A   Overcast
1:56 AM 36.0 °F 23.9 °F 26.1 °F 67% 29.78 in 10.0 mi WNW 25.3 mph 32.2 mph N/A   Overcast
2:11 AM 33.8 °F 21.6 °F 28.4 °F 81% 29.77 in 1.8 mi WNW 23.0 mph - 0.00 in Snow Light Snow
2:20 AM 33.8 °F 23.2 °F 28.4 °F 81% 29.77 in 2.0 mi WNW 17.3 mph - 0.00 in Snow Light Snow
2:31 AM 33.8 °F 24.3 °F 30.2 °F 87% 29.78 in 5.0 mi WNW 13.8 mph - 0.00 in Snow Light Snow
2:43 AM 33.8 °F 25.3 °F 30.2 °F 87% 29.78 in 1.8 mi West 11.5 mph - 0.00 in Snow Light Snow
2:54 AM 32.0 °F 25.6 °F 30.2 °F 93% 29.78 in 1.2 mi WNW 6.9 mph - 0.00 in Snow Light Snow
2:56 AM 32.0 °F 26.4 °F 30.0 °F 92% 29.83 in 1.2 mi WNW 5.8 mph - 0.00 in Snow Light Snow
3:00 AM 32.0 °F 26.4 °F 30.2 °F 93% 29.77 in 1.5 mi WNW 5.8 mph - 0.00 in Snow Light Snow
3:13 AM 32.0 °F 28.7 °F 28.4 °F 87% 29.76 in 3.0 mi East 3.5 mph - 0.00 in Snow Light Snow
3:26 AM 30.2 °F 23.4 °F 28.4 °F 93% 29.75 in 9.0 mi East 6.9 mph - 0.00 in   Overcast
3:56 AM 30.9 °F 22.8 °F 28.0 °F 89% 29.79 in 10.0 mi ESE 9.2 mph - 0.00 in   Overcast
4:56 AM 30.0 °F 23.2 °F 27.0 °F 88% 29.80 in 10.0 mi SSE 6.9 mph - N/A   Overcast
5:56 AM 30.9 °F - 27.0 °F 85% 29.81 in 8.0 mi Calm Calm - 0.00 in Snow Light Snow
6:04 AM 32.0 °F 20.8 °F 26.6 °F 80% 29.75 in 1.8 mi NW 17.3 mph 20.7 mph 0.00 in Snow Light Snow
6:07 AM 30.2 °F 17.8 °F 26.6 °F 86% 29.75 in 0.8 mi NW 19.6 mph - 0.01 in Snow Light Snow
6:18 AM 30.2 °F 15.4 °F 26.6 °F 86% 29.76 in 0.5 mi NW 28.8 mph 39.1 mph 0.01 in Fog , Snow Snow
6:30 AM 28.4 °F 16.2 °F 26.6 °F 93% 29.77 in 1.0 mi NW 17.3 mph 28.8 mph 0.01 in Snow Light Snow
6:34 AM 28.4 °F 17.0 °F 26.6 °F 93% 29.77 in 2.0 mi NW 15.0 mph - 0.01 in Snow Light Snow
6:40 AM 28.4 °F 18.5 °F 24.8 °F 86% 29.77 in 9.0 mi NW 11.5 mph - 0.01 in   Overcast
6:56 AM 28.9 °F 19.2 °F 23.0 °F 78% 29.84 in 10.0 mi West 11.5 mph - 0.01 in   Overcast
7:56 AM 26.1 °F 20.5 °F 19.9 °F 78% 29.89 in 10.0 mi SSE 4.6 mph - N/A   Mostly Cloudy
8:56 AM 30.0 °F 24.1 °F 21.9 °F 72% 29.90 in 10.0 mi SSW 5.8 mph - N/A   Overcast
9:48 AM 30.2 °F 19.3 °F 19.4 °F 64% 29.83 in 6.0 mi North 15.0 mph - 0.00 in Snow Light Snow
9:56 AM 28.9 °F 19.2 °F 24.1 °F 82% 29.94 in 6.0 mi NNE 11.5 mph - 0.00 in Snow Light Snow
10:56 AM 28.9 °F 22.8 °F 24.1 °F 82% 29.94 in 10.0 mi East 5.8 mph - 0.00 in   Overcast
11:56 AM 30.9 °F 22.8 °F 21.0 °F 67% 29.94 in 10.0 mi SSE 9.2 mph - N/A   Overcast
12:56 PM 32.0 °F 27.5 °F 21.0 °F 64% 29.92 in 10.0 mi SSW 4.6 mph - N/A   Overcast
1:56 PM 33.1 °F 28.7 °F 21.0 °F 61% 29.91 in 10.0 mi North 4.6 mph - N/A   Overcast
2:15 PM 30.2 °F 22.6 °F 23.0 °F 75% 29.86 in 2.5 mi NE 8.1 mph - 0.00 in Snow Light Snow
2:22 PM 30.2 °F 23.4 °F 23.0 °F 75% 29.86 in 4.0 mi East 6.9 mph - 0.00 in Snow Light Snow
2:38 PM 30.2 °F 23.4 °F 23.0 °F 75% 29.86 in 9.0 mi ENE 6.9 mph - 0.00 in   Overcast
2:56 PM 30.9 °F 26.2 °F 23.0 °F 72% 29.95 in 10.0 mi ENE 4.6 mph - 0.00 in   Overcast
3:56 PM 30.9 °F 25.2 °F 23.0 °F 72% 29.96 in 10.0 mi SSE 5.8 mph - N/A   Overcast
4:56 PM 30.9 °F 25.2 °F 23.0 °F 72% 29.98 in 10.0 mi South 5.8 mph - N/A   Overcast
5:56 PM 30.0 °F 26.5 °F 23.0 °F 75% 30.00 in 10.0 mi East 3.5 mph - N/A   Overcast
6:56 PM 28.0 °F 20.8 °F 21.9 °F 78% 30.02 in 10.0 mi ESE 6.9 mph - N/A   Overcast
7:56 PM 27.0 °F 21.6 °F 21.0 °F 78% 30.05 in 10.0 mi ENE 4.6 mph - N/A   Overcast
8:56 PM 27.0 °F 19.5 °F 21.9 °F 81% 30.06 in 10.0 mi NW 6.9 mph - N/A   Overcast
9:37 PM 26.6 °F 22.6 °F 24.8 °F 93% 29.96 in 8.0 mi WNW 3.5 mph - 0.00 in Snow Light Snow
9:44 PM 26.6 °F - 24.8 °F 93% 29.96 in 5.0 mi Calm Calm - 0.00 in Snow Light Snow
9:56 PM 28.0 °F - 25.0 °F 88% 30.07 in 8.0 mi Calm Calm - 0.00 in   Overcast
10:03 PM 28.4 °F - 24.8 °F 86% 29.97 in 10.0 mi Calm Calm - N/A   Overcast
10:56 PM 28.0 °F 21.7 °F 23.0 °F 81% 30.08 in 10.0 mi SW 5.8 mph - N/A   Mostly Cloudy
11:56 PM 25.0 °F 20.7 °F 19.9 °F 81% 30.09 in 10.0 mi SE 3.5 mph - N/A   Overcast